Location: Houhaj�rvi
(61.2833°N, 23.0000°E)
Time: 18:25:35
(UTC+00:00)

SeaSat 1 - Pass Details

Date: 27 February 2020
Orbit: 744 x 748 km, 108.0° (Epoch: 28 March)

Event Time Altitude Azimuth Distance (km) Brightness Sun altitude
Exits shadow 20:04:46 26° 28° (NNE) 1,472 4.0 -29.8°
Maximum altitude 20:05:37 27° 11° (N) 1,425 4.1 -29.8°
Drops below altitude 10° 20:09:43 10° 315° (NW) 2,280 5.9 -30.2°
Sets 20:12:16 0° 304° (WNW) 3,205 6.8 -30.4°
